Time,TemperatureF,DewpointF,PressureIn,WindDirection,WindDirectionDegrees,WindSpeedMPH,WindSpeedGustMPH,Humidity,HourlyPrecipIn,Conditions,Clouds,dailyrainin,SoftwareType,DateUTC
2013-10-20 00:01:00,52.0,50.3,29.68,SSE,160,0.0,0.0,94,0.00,,,0.00,Wunderground v.1.15,2013-10-20 04:01:00,
2013-10-20 00:03:00,52.0,50.3,29.68,SSE,160,0.0,0.0,94,0.00,,,0.00,Wunderground v.1.15,2013-10-20 04:03:00,
2013-10-20 00:04:00,51.9,50.2,29.68,SSE,160,0.0,0.0,94,0.00,,,0.00,Wunderground v.1.15,2013-10-20 04:04:00,
2013-10-20 00:07:00,51.9,50.2,29.68,SSE,160,0.0,0.0,94,0.00,,,0.00,Wunderground v.1.15,2013-10-20 04:07:00,
2013-10-20 00:10:00,51.9,50.2,29.67,SSE,161,0.0,0.0,94,0.00,,,0.00,Wunderground v.1.15,2013-10-20 04:10:00,
2013-10-20 00:16:00,51.8,50.1,29.68,SSE,162,0.0,0.0,94,0.00,,,0.00,Wunderground v.1.15,2013-10-20 04:16:00,
2013-10-20 00:22:00,51.7,50.3,29.68,SSE,162,0.0,0.0,95,0.00,,,0.00,Wunderground v.1.15,2013-10-20 04:22:00,
2013-10-20 00:28:00,51.7,50.0,29.68,SSE,162,0.0,0.0,94,0.00,,,0.00,Wunderground v.1.15,2013-10-20 04:28:00,
2013-10-20 00:34:00,51.6,50.2,29.68,SSE,162,0.0,0.0,95,0.00,,,0.00,Wunderground v.1.15,2013-10-20 04:34:00,
2013-10-20 00:39:00,51.6,50.2,29.67,SSE,162,0.0,0.0,95,0.00,,,0.00,Wunderground v.1.15,2013-10-20 04:39:00,
2013-10-20 00:45:00,51.4,50.0,29.68,SSE,162,0.0,0.0,95,0.00,,,0.00,Wunderground v.1.15,2013-10-20 04:45:00,
2013-10-20 00:50:00,51.3,49.9,29.67,SSW,196,0.0,0.0,95,0.00,,,0.00,Wunderground v.1.15,2013-10-20 04:50:00,
2013-10-20 00:56:00,51.2,49.8,29.68,SSW,196,0.0,0.0,95,0.00,,,0.00,Wunderground v.1.15,2013-10-20 04:56:00,
2013-10-20 01:01:00,51.0,49.6,29.67,SSW,196,0.0,0.0,95,0.00,,,0.00,Wunderground v.1.15,2013-10-20 05:01:00,
2013-10-20 01:07:00,50.9,49.5,29.67,SSW,199,0.0,0.0,95,0.00,,,0.00,Wunderground v.1.15,2013-10-20 05:07:00,
2013-10-20 01:12:00,50.8,49.4,29.67,SSW,198,0.0,0.0,95,0.00,,,0.00,Wunderground v.1.15,2013-10-20 05:12:00,
2013-10-20 01:18:00,50.7,49.3,29.67,SSW,209,0.0,0.0,95,0.00,,,0.00,Wunderground v.1.15,2013-10-20 05:18:00,
2013-10-20 01:23:00,50.6,49.2,29.67,South,185,3.0,3.0,95,0.00,,,0.00,Wunderground v.1.15,2013-10-20 05:23:00,
2013-10-20 01:29:00,50.6,49.2,29.67,South,187,0.0,3.0,95,0.00,,,0.00,Wunderground v.1.15,2013-10-20 05:29:00,
2013-10-20 01:35:00,50.4,49.0,29.67,South,187,0.0,1.0,95,0.00,,,0.00,Wunderground v.1.15,2013-10-20 05:35:00,
2013-10-20 01:40:00,50.3,48.9,29.67,South,187,0.0,0.0,95,0.00,,,0.00,Wunderground v.1.15,2013-10-20 05:40:00,
2013-10-20 01:46:00,50.2,48.8,29.67,SW,236,0.0,3.0,95,0.00,,,0.00,Wunderground v.1.15,2013-10-20 05:46:00,
2013-10-20 01:52:00,50.1,48.7,29.67,WSW,239,3.0,3.0,95,0.00,,,0.00,Wunderground v.1.15,2013-10-20 05:52:00,
2013-10-20 01:57:00,50.1,48.7,29.67,WSW,244,0.0,5.0,95,0.00,,,0.00,Wunderground v.1.15,2013-10-20 05:57:00,
2013-10-20 02:02:00,50.0,48.6,29.67,SW,222,0.0,6.0,95,0.00,,,0.00,Wunderground v.1.15,2013-10-20 06:02:00,
2013-10-20 02:07:00,50.0,48.6,29.67,WSW,250,0.0,6.0,95,0.00,,,0.00,Wunderground v.1.15,2013-10-20 06:07:00,
2013-10-20 02:12:00,49.9,48.5,29.67,SW,225,4.0,6.0,95,0.00,,,0.00,Wunderground v.1.15,2013-10-20 06:12:00,
2013-10-20 02:17:00,49.9,48.5,29.67,SSW,204,0.0,7.0,95,0.00,,,0.00,Wunderground v.1.15,2013-10-20 06:17:00,
2013-10-20 02:22:00,49.8,48.4,29.67,SW,231,0.0,3.0,95,0.00,,,0.00,Wunderground v.1.15,2013-10-20 06:22:00,
2013-10-20 02:27:00,49.7,48.3,29.67,SW,234,0.0,4.0,95,0.00,,,0.00,Wunderground v.1.15,2013-10-20 06:27:00,
2013-10-20 02:32:00,49.6,48.2,29.67,SW,234,0.0,3.0,95,0.00,,,0.00,Wunderground v.1.15,2013-10-20 06:32:00,
2013-10-20 02:37:00,49.6,48.2,29.67,SW,233,0.0,3.0,95,0.00,,,0.00,Wunderground v.1.15,2013-10-20 06:37:00,
2013-10-20 02:42:00,49.5,48.1,29.68,SW,229,0.0,0.0,95,0.00,,,0.00,Wunderground v.1.15,2013-10-20 06:42:00,
2013-10-20 02:47:00,49.4,48.0,29.68,SW,229,0.0,0.0,95,0.00,,,0.00,Wunderground v.1.15,2013-10-20 06:47:00,
2013-10-20 02:52:00,49.3,47.9,29.68,SW,233,0.0,4.0,95,0.00,,,0.00,Wunderground v.1.15,2013-10-20 06:52:00,
2013-10-20 02:57:00,49.2,47.8,29.68,SW,229,0.0,4.0,95,0.00,,,0.00,Wunderground v.1.15,2013-10-20 06:57:00,
2013-10-20 03:03:00,49.2,47.8,29.68,SW,229,0.0,4.0,95,0.00,,,0.00,Wunderground v.1.15,2013-10-20 07:03:00,
2013-10-20 03:08:00,49.1,47.7,29.68,WNW,286,0.0,4.0,95,0.00,,,0.00,Wunderground v.1.15,2013-10-20 07:08:00,
2013-10-20 03:13:00,49.0,47.6,29.68,WSW,248,0.0,0.0,95,0.00,,,0.00,Wunderground v.1.15,2013-10-20 07:13:00,
2013-10-20 03:18:00,48.9,47.5,29.68,WSW,252,0.0,0.0,95,0.00,,,0.00,Wunderground v.1.15,2013-10-20 07:18:00,
2013-10-20 03:23:00,48.8,47.4,29.68,WSW,258,1.0,5.0,95,0.00,,,0.00,Wunderground v.1.15,2013-10-20 07:23:00,
2013-10-20 03:28:00,48.7,47.3,29.68,WSW,258,2.0,5.0,95,0.00,,,0.00,Wunderground v.1.15,2013-10-20 07:28:00,
2013-10-20 03:33:00,48.5,47.1,29.69,WSW,258,0.0,5.0,95,0.00,,,0.00,Wunderground v.1.15,2013-10-20 07:33:00,
2013-10-20 03:38:00,48.5,47.1,29.69,WSW,258,0.0,5.0,95,0.00,,,0.00,Wunderground v.1.15,2013-10-20 07:38:00,
2013-10-20 03:43:00,48.4,47.0,29.69,West,259,0.0,0.0,95,0.00,,,0.00,Wunderground v.1.15,2013-10-20 07:43:00,
2013-10-20 03:48:00,48.2,46.8,29.69,West,261,0.0,5.0,95,0.00,,,0.00,Wunderground v.1.15,2013-10-20 07:48:00,
2013-10-20 03:53:00,48.1,46.7,29.70,WNW,289,2.0,6.0,95,0.00,,,0.01,Wunderground v.1.15,2013-10-20 07:53:00,
2013-10-20 03:58:00,48.0,46.6,29.70,WNW,288,3.0,6.0,95,0.00,,,0.01,Wunderground v.1.15,2013-10-20 07:58:00,
2013-10-20 04:03:00,48.0,46.6,29.70,West,275,0.0,5.0,95,0.00,,,0.01,Wunderground v.1.15,2013-10-20 08:03:00,
2013-10-20 04:08:00,47.9,46.3,29.70,West,260,3.0,6.0,94,0.00,,,0.01,Wunderground v.1.15,2013-10-20 08:08:00,
2013-10-20 04:13:00,47.9,46.5,29.70,West,273,2.0,6.0,95,0.00,,,0.01,Wunderground v.1.15,2013-10-20 08:13:00,
2013-10-20 04:18:00,47.9,46.3,29.71,West,275,0.0,6.0,94,0.00,,,0.01,Wunderground v.1.15,2013-10-20 08:18:00,
2013-10-20 04:24:00,47.8,46.2,29.71,West,273,0.0,3.0,94,0.00,,,0.01,Wunderground v.1.15,2013-10-20 08:24:00,
2013-10-20 04:29:00,47.7,46.1,29.71,West,272,0.0,5.0,94,0.00,,,0.01,Wunderground v.1.15,2013-10-20 08:29:00,
2013-10-20 04:34:00,47.6,46.0,29.71,West,271,0.0,3.0,94,0.00,,,0.01,Wunderground v.1.15,2013-10-20 08:34:00,
2013-10-20 04:39:00,47.4,45.8,29.71,WSW,257,0.0,3.0,94,0.00,,,0.01,Wunderground v.1.15,2013-10-20 08:39:00,
2013-10-20 04:44:00,47.2,45.3,29.71,West,277,2.0,7.0,93,0.00,,,0.01,Wunderground v.1.15,2013-10-20 08:44:00,
2013-10-20 04:49:00,47.1,45.2,29.72,WNW,287,2.0,7.0,93,0.00,,,0.01,Wunderground v.1.15,2013-10-20 08:49:00,
2013-10-20 04:54:00,47.1,44.9,29.72,West,277,1.0,7.0,92,0.00,,,0.01,Wunderground v.1.15,2013-10-20 08:54:00,
2013-10-20 04:59:00,47.0,44.5,29.73,West,272,4.0,7.0,91,0.00,,,0.01,Wunderground v.1.15,2013-10-20 08:59:00,
2013-10-20 05:04:00,47.2,43.8,29.73,West,260,0.0,7.0,88,0.00,,,0.01,Wunderground v.1.15,2013-10-20 09:04:00,
2013-10-20 05:09:00,47.3,43.3,29.73,West,277,4.0,7.0,86,0.00,,,0.01,Wunderground v.1.15,2013-10-20 09:09:00,
2013-10-20 05:14:00,47.3,42.4,29.74,WSW,257,0.0,4.0,83,0.00,,,0.01,Wunderground v.1.15,2013-10-20 09:14:00,
2013-10-20 05:19:00,47.3,41.8,29.74,West,281,2.0,4.0,81,0.00,,,0.01,Wunderground v.1.15,2013-10-20 09:19:00,
2013-10-20 05:24:00,47.2,41.0,29.74,WNW,287,3.0,6.0,79,0.00,,,0.01,Wunderground v.1.15,2013-10-20 09:24:00,
2013-10-20 05:29:00,47.2,40.7,29.74,West,274,3.0,6.0,78,0.00,,,0.01,Wunderground v.1.15,2013-10-20 09:29:00,
2013-10-20 05:34:00,47.1,40.3,29.75,WNW,285,6.0,6.0,77,0.00,,,0.01,Wunderground v.1.15,2013-10-20 09:34:00,
2013-10-20 05:39:00,47.0,39.8,29.75,West,279,4.0,7.0,76,0.00,,,0.01,Wunderground v.1.15,2013-10-20 09:39:00,
2013-10-20 05:44:00,46.8,39.6,29.75,WNW,288,2.0,8.0,76,0.00,,,0.01,Wunderground v.1.15,2013-10-20 09:44:00,
2013-10-20 05:49:00,46.8,38.9,29.75,West,271,4.0,8.0,74,0.00,,,0.01,Wunderground v.1.15,2013-10-20 09:49:00,
2013-10-20 05:54:00,46.9,39.0,29.75,West,274,3.0,5.0,74,0.00,,,0.01,Wunderground v.1.15,2013-10-20 09:54:00,
2013-10-20 05:59:00,46.7,38.9,29.75,West,267,1.0,10.0,74,0.00,,,0.01,Wunderground v.1.15,2013-10-20 09:59:00,
2013-10-20 06:04:00,46.6,38.4,29.75,West,264,2.0,7.0,73,0.00,,,0.01,Wunderground v.1.15,2013-10-20 10:04:00,
2013-10-20 06:09:00,46.6,38.4,29.75,West,273,1.0,8.0,73,0.00,,,0.01,Wunderground v.1.15,2013-10-20 10:09:00,
2013-10-20 06:14:00,46.5,38.0,29.75,WNW,290,1.0,9.0,72,0.00,,,0.01,Wunderground v.1.15,2013-10-20 10:14:00,
2013-10-20 06:19:00,46.5,38.0,29.75,WNW,290,3.0,9.0,72,0.00,,,0.01,Wunderground v.1.15,2013-10-20 10:19:00,
2013-10-20 06:24:00,46.6,38.1,29.75,West,266,3.0,9.0,72,0.00,,,0.01,Wunderground v.1.15,2013-10-20 10:24:00,
2013-10-20 06:29:00,46.6,38.1,29.75,WNW,284,6.0,9.0,72,0.00,,,0.01,Wunderground v.1.15,2013-10-20 10:29:00,
2013-10-20 06:34:00,46.7,37.8,29.75,West,267,5.0,8.0,71,0.00,,,0.01,Wunderground v.1.15,2013-10-20 10:34:00,
2013-10-20 06:39:00,46.7,37.8,29.76,West,260,6.0,10.0,71,0.00,,,0.01,Wunderground v.1.15,2013-10-20 10:39:00,
2013-10-20 06:44:00,46.7,37.8,29.76,West,265,3.0,12.0,71,0.00,,,0.01,Wunderground v.1.15,2013-10-20 10:44:00,
2013-10-20 06:49:00,46.7,37.8,29.76,West,266,4.0,12.0,71,0.00,,,0.01,Wunderground v.1.15,2013-10-20 10:49:00,
2013-10-20 06:54:00,46.7,37.8,29.77,WNW,283,1.0,11.0,71,0.00,,,0.01,Wunderground v.1.15,2013-10-20 10:54:00,
2013-10-20 06:59:00,46.6,38.1,29.77,West,267,2.0,11.0,72,0.00,,,0.01,Wunderground v.1.15,2013-10-20 10:59:00,
2013-10-20 07:04:00,46.2,38.4,29.77,West,265,3.0,4.0,74,0.00,,,0.01,Wunderground v.1.15,2013-10-20 11:04:00,
2013-10-20 07:09:00,45.6,38.5,29.78,West,267,3.0,6.0,76,0.00,,,0.01,Wunderground v.1.15,2013-10-20 11:09:00,
2013-10-20 07:14:00,45.1,38.3,29.78,WSW,251,2.0,5.0,77,0.00,,,0.01,Wunderground v.1.15,2013-10-20 11:14:00,
2013-10-20 07:19:00,44.6,38.2,29.79,West,281,0.0,5.0,78,0.00,,,0.01,Wunderground v.1.15,2013-10-20 11:19:00,
2013-10-20 07:24:00,44.3,38.2,29.79,SW,236,0.0,6.0,79,0.00,,,0.01,Wunderground v.1.15,2013-10-20 11:24:00,
2013-10-20 07:29:00,44.2,38.4,29.79,SW,236,0.0,6.0,80,0.00,,,0.01,Wunderground v.1.15,2013-10-20 11:29:00,
2013-10-20 07:34:00,44.2,38.4,29.80,SW,236,0.0,2.0,80,0.00,,,0.01,Wunderground v.1.15,2013-10-20 11:34:00,
2013-10-20 07:39:00,44.5,38.7,29.80,SW,236,0.0,2.0,80,0.00,,,0.01,Wunderground v.1.15,2013-10-20 11:39:00,
2013-10-20 07:44:00,45.0,39.2,29.81,SW,236,0.0,0.0,80,0.00,,,0.01,Wunderground v.1.15,2013-10-20 11:44:00,
2013-10-20 07:49:00,45.5,39.4,29.81,SW,236,0.0,0.0,79,0.00,,,0.01,Wunderground v.1.15,2013-10-20 11:49:00,
2013-10-20 07:54:00,46.0,39.9,29.81,SW,236,0.0,0.0,79,0.00,,,0.01,Wunderground v.1.15,2013-10-20 11:54:00,
2013-10-20 07:59:00,46.6,39.8,29.81,SW,236,0.0,0.0,77,0.00,,,0.01,Wunderground v.1.15,2013-10-20 11:59:00,
2013-10-20 08:04:00,47.0,39.5,29.81,SSE,156,0.0,4.0,75,0.00,,,0.01,Wunderground v.1.15,2013-10-20 12:04:00,
2013-10-20 08:09:00,47.4,39.9,29.82,SSE,156,0.0,4.0,75,0.00,,,0.01,Wunderground v.1.15,2013-10-20 12:09:00,
2013-10-20 08:14:00,47.7,39.5,29.82,SSE,156,0.0,1.0,73,0.00,,,0.01,Wunderground v.1.15,2013-10-20 12:14:00,
2013-10-20 08:19:00,48.3,40.4,29.82,SSE,156,0.0,1.0,74,0.00,,,0.01,Wunderground v.1.15,2013-10-20 12:19:00,
2013-10-20 08:24:00,48.8,40.2,29.82,SSE,158,0.0,0.0,72,0.00,,,0.01,Wunderground v.1.15,2013-10-20 12:24:00,
2013-10-20 08:29:00,49.2,40.6,29.83,SSE,158,0.0,0.0,72,0.00,,,0.01,Wunderground v.1.15,2013-10-20 12:29:00,
2013-10-20 08:34:00,49.6,40.2,29.83,SSE,158,0.0,0.0,70,0.00,,,0.01,Wunderground v.1.15,2013-10-20 12:34:00,
2013-10-20 08:39:00,50.0,40.6,29.83,SSE,158,0.0,0.0,70,0.00,,,0.01,Wunderground v.1.15,2013-10-20 12:39:00,
2013-10-20 08:44:00,50.1,40.3,29.83,SSE,159,0.0,0.0,69,0.00,,,0.01,Wunderground v.1.15,2013-10-20 12:44:00,
2013-10-20 08:50:00,50.3,40.5,29.83,WSW,250,0.0,0.0,69,0.00,,,0.01,Wunderground v.1.15,2013-10-20 12:50:00,
2013-10-20 08:55:00,50.5,41.1,29.84,WSW,242,0.0,0.0,70,0.00,,,0.01,Wunderground v.1.15,2013-10-20 12:55:00,
2013-10-20 09:00:00,50.8,41.0,29.84,WSW,241,0.0,0.0,69,0.00,,,0.01,Wunderground v.1.15,2013-10-20 13:00:00,
2013-10-20 09:05:00,51.0,40.8,29.84,WSW,241,0.0,0.0,68,0.00,,,0.01,Wunderground v.1.15,2013-10-20 13:05:00,
2013-10-20 09:10:00,51.2,41.0,29.84,WSW,241,0.0,0.0,68,0.00,,,0.01,Wunderground v.1.15,2013-10-20 13:10:00,
2013-10-20 09:15:00,51.2,40.6,29.84,West,276,3.0,4.0,67,0.00,,,0.01,Wunderground v.1.15,2013-10-20 13:15:00,
2013-10-20 09:20:00,50.9,40.3,29.84,West,269,4.0,5.0,67,0.00,,,0.01,Wunderground v.1.15,2013-10-20 13:20:00,
2013-10-20 09:25:00,50.7,40.5,29.84,West,275,4.0,8.0,68,0.00,,,0.01,Wunderground v.1.15,2013-10-20 13:25:00,
2013-10-20 09:30:00,50.6,40.4,29.84,West,267,3.0,5.0,68,0.00,,,0.01,Wunderground v.1.15,2013-10-20 13:30:00,
2013-10-20 09:35:00,50.7,40.9,29.85,WSW,257,0.0,6.0,69,0.00,,,0.01,Wunderground v.1.15,2013-10-20 13:35:00,
2013-10-20 09:40:00,51.1,40.9,29.85,WSW,238,0.0,2.0,68,0.00,,,0.01,Wunderground v.1.15,2013-10-20 13:40:00,
2013-10-20 09:45:00,51.5,40.9,29.85,NW,311,5.0,6.0,67,0.00,,,0.01,Wunderground v.1.15,2013-10-20 13:45:00,
2013-10-20 09:50:00,51.6,40.6,29.85,WNW,292,0.0,2.0,66,0.00,,,0.01,Wunderground v.1.15,2013-10-20 13:50:00,
2013-10-20 09:55:00,51.8,40.8,29.85,WNW,295,4.0,7.0,66,0.00,,,0.01,Wunderground v.1.15,2013-10-20 13:55:00,
2013-10-20 10:00:00,51.8,41.2,29.85,West,279,3.0,4.0,67,0.00,,,0.01,Wunderground v.1.15,2013-10-20 14:00:00,
2013-10-20 10:05:00,52.1,40.7,29.85,WNW,290,2.0,8.0,65,0.00,,,0.01,Wunderground v.1.15,2013-10-20 14:05:00,
2013-10-20 10:10:00,52.3,40.9,29.85,WNW,290,0.0,4.0,65,0.00,,,0.01,Wunderground v.1.15,2013-10-20 14:10:00,
2013-10-20 10:15:00,52.6,40.8,29.85,SSW,211,0.0,6.0,64,0.00,,,0.01,Wunderground v.1.15,2013-10-20 14:15:00,
2013-10-20 10:20:00,53.1,40.8,29.85,WSW,258,0.0,2.0,63,0.00,,,0.01,Wunderground v.1.15,2013-10-20 14:20:00,
2013-10-20 10:25:00,53.8,41.9,29.85,SW,232,0.0,6.0,64,0.00,,,0.01,Wunderground v.1.15,2013-10-20 14:25:00,
2013-10-20 10:30:00,54.1,40.9,29.84,WNW,298,4.0,6.0,61,0.00,,,0.01,Wunderground v.1.15,2013-10-20 14:30:00,
2013-10-20 10:35:00,53.9,40.8,29.85,WNW,299,2.0,6.0,61,0.00,,,0.01,Wunderground v.1.15,2013-10-20 14:35:00,
2013-10-20 10:40:00,54.1,40.9,29.85,WNW,289,1.0,6.0,61,0.00,,,0.01,Wunderground v.1.15,2013-10-20 14:40:00,
2013-10-20 10:45:00,54.1,40.9,29.85,West,265,3.0,7.0,61,0.00,,,0.01,Wunderground v.1.15,2013-10-20 14:45:00,
2013-10-20 10:50:00,53.9,40.8,29.85,WNW,290,3.0,4.0,61,0.00,,,0.01,Wunderground v.1.15,2013-10-20 14:50:00,
2013-10-20 10:55:00,54.1,41.4,29.85,SW,231,6.0,7.0,62,0.00,,,0.01,Wunderground v.1.15,2013-10-20 14:55:00,
2013-10-20 11:00:00,54.5,40.9,29.85,WSW,257,1.0,7.0,60,0.00,,,0.01,Wunderground v.1.15,2013-10-20 15:00:00,
2013-10-20 11:05:00,54.8,41.2,29.85,WNW,284,6.0,8.0,60,0.00,,,0.01,Wunderground v.1.15,2013-10-20 15:05:00,
2013-10-20 11:10:00,54.8,41.6,29.86,West,274,0.0,3.0,61,0.00,,,0.01,Wunderground v.1.15,2013-10-20 15:10:00,
2013-10-20 11:15:00,55.0,41.8,29.86,WSW,252,1.0,5.0,61,0.00,,,0.01,Wunderground v.1.15,2013-10-20 15:15:00,
2013-10-20 11:20:00,55.5,42.3,29.86,SW,236,2.0,2.0,61,0.00,,,0.01,Wunderground v.1.15,2013-10-20 15:20:00,
2013-10-20 11:26:00,55.8,42.1,29.86,West,267,0.0,5.0,60,0.00,,,0.01,Wunderground v.1.15,2013-10-20 15:26:00,
2013-10-20 11:31:00,56.3,42.6,29.86,SSW,194,2.0,4.0,60,0.00,,,0.01,Wunderground v.1.15,2013-10-20 15:31:00,
2013-10-20 11:36:00,56.4,42.2,29.86,SSE,148,0.0,6.0,59,0.00,,,0.01,Wunderground v.1.15,2013-10-20 15:36:00,
2013-10-20 11:41:00,56.8,43.1,29.86,WSW,256,1.0,1.0,60,0.00,,,0.01,Wunderground v.1.15,2013-10-20 15:41:00,
2013-10-20 11:46:00,56.9,42.3,29.86,WNW,287,1.0,7.0,58,0.00,,,0.01,Wunderground v.1.15,2013-10-20 15:46:00,
2013-10-20 11:51:00,57.2,41.2,29.86,WNW,284,2.0,8.0,55,0.00,,,0.01,Wunderground v.1.15,2013-10-20 15:51:00,
2013-10-20 11:56:00,57.1,40.6,29.86,West,275,3.0,9.0,54,0.00,,,0.01,Wunderground v.1.15,2013-10-20 15:56:00,
2013-10-20 12:01:00,57.0,41.0,29.86,West,267,0.0,5.0,55,0.00,,,0.01,Wunderground v.1.15,2013-10-20 16:01:00,
2013-10-20 12:06:00,57.4,40.9,29.86,West,265,4.0,7.0,54,0.00,,,0.01,Wunderground v.1.15,2013-10-20 16:06:00,
2013-10-20 12:11:00,57.5,41.0,29.86,WSW,254,0.0,5.0,54,0.00,,,0.01,Wunderground v.1.15,2013-10-20 16:11:00,
2013-10-20 12:16:00,57.8,42.2,29.85,SW,220,3.0,9.0,56,0.00,,,0.01,Wunderground v.1.15,2013-10-20 16:16:00,
2013-10-20 12:21:00,58.1,40.6,29.85,West,263,4.0,7.0,52,0.00,,,0.01,Wunderground v.1.15,2013-10-20 16:21:00,
2013-10-20 12:26:00,58.3,40.7,29.85,WNW,295,4.0,7.0,52,0.00,,,0.01,Wunderground v.1.15,2013-10-20 16:26:00,
2013-10-20 12:31:00,58.4,40.3,29.85,West,277,4.0,6.0,51,0.00,,,0.01,Wunderground v.1.15,2013-10-20 16:31:00,
2013-10-20 12:36:00,58.4,39.8,29.86,WSW,242,3.0,8.0,50,0.00,,,0.01,Wunderground v.1.15,2013-10-20 16:36:00,
2013-10-20 12:41:00,58.4,39.8,29.85,West,279,4.0,6.0,50,0.00,,,0.01,Wunderground v.1.15,2013-10-20 16:41:00,
2013-10-20 12:46:00,58.5,39.9,29.85,WNW,303,0.0,6.0,50,0.00,,,0.01,Wunderground v.1.15,2013-10-20 16:46:00,
2013-10-20 12:51:00,59.0,39.9,29.85,NW,305,4.0,6.0,49,0.00,,,0.01,Wunderground v.1.15,2013-10-20 16:51:00,
2013-10-20 12:56:00,59.1,39.4,29.85,West,278,0.0,8.0,48,0.00,,,0.01,Wunderground v.1.15,2013-10-20 16:56:00,
2013-10-20 13:01:00,59.4,40.7,29.85,West,268,3.0,4.0,50,0.00,,,0.01,Wunderground v.1.15,2013-10-20 17:01:00,
2013-10-20 13:06:00,59.8,41.1,29.85,West,273,3.0,10.0,50,0.00,,,0.01,Wunderground v.1.15,2013-10-20 17:06:00,
2013-10-20 13:11:00,60.0,40.2,29.85,West,261,5.0,6.0,48,0.00,,,0.01,Wunderground v.1.15,2013-10-20 17:11:00,
2013-10-20 13:16:00,59.5,40.3,29.85,WSW,250,3.0,11.0,49,0.00,,,0.01,Wunderground v.1.15,2013-10-20 17:16:00,
2013-10-20 13:21:00,59.4,40.2,29.85,West,266,4.0,7.0,49,0.00,,,0.01,Wunderground v.1.15,2013-10-20 17:21:00,
2013-10-20 13:26:00,59.3,39.1,29.85,WSW,246,5.0,9.0,47,0.00,,,0.01,Wunderground v.1.15,2013-10-20 17:26:00,
2013-10-20 13:31:00,59.0,39.3,29.85,SW,215,6.0,9.0,48,0.00,,,0.01,Wunderground v.1.15,2013-10-20 17:31:00,
2013-10-20 13:36:00,58.6,39.5,29.85,SW,230,0.0,9.0,49,0.00,,,0.01,Wunderground v.1.15,2013-10-20 17:36:00,
2013-10-20 13:41:00,58.4,39.3,29.85,South,177,0.0,7.0,49,0.00,,,0.01,Wunderground v.1.15,2013-10-20 17:41:00,
2013-10-20 13:46:00,58.0,38.4,29.85,South,185,4.0,7.0,48,0.00,,,0.01,Wunderground v.1.15,2013-10-20 17:46:00,
2013-10-20 13:51:00,57.7,38.7,29.85,WSW,255,0.0,2.0,49,0.00,,,0.01,Wunderground v.1.15,2013-10-20 17:51:00,
2013-10-20 13:56:00,57.7,39.2,29.85,WSW,250,0.0,8.0,50,0.00,,,0.01,Wunderground v.1.15,2013-10-20 17:56:00,
2013-10-20 14:01:00,58.5,39.9,29.85,WSW,257,0.0,7.0,50,0.00,,,0.01,Wunderground v.1.15,2013-10-20 18:01:00,
2013-10-20 14:06:00,59.4,38.6,29.84,SW,221,0.0,7.0,46,0.00,,,0.01,Wunderground v.1.15,2013-10-20 18:06:00,
2013-10-20 14:11:00,60.1,39.2,29.84,WSW,254,0.0,1.0,46,0.00,,,0.01,Wunderground v.1.15,2013-10-20 18:11:00,
2013-10-20 14:16:00,60.5,39.6,29.84,West,261,3.0,4.0,46,0.00,,,0.01,Wunderground v.1.15,2013-10-20 18:16:00,
2013-10-20 14:21:00,60.7,38.1,29.84,West,267,0.0,9.0,43,0.00,,,0.01,Wunderground v.1.15,2013-10-20 18:21:00,
2013-10-20 14:26:00,60.8,36.9,29.84,WNW,286,5.0,13.0,41,0.00,,,0.01,Wunderground v.1.15,2013-10-20 18:26:00,
2013-10-20 14:31:00,60.4,37.2,29.84,WSW,254,6.0,12.0,42,0.00,,,0.01,Wunderground v.1.15,2013-10-20 18:31:00,
2013-10-20 14:36:00,60.2,37.0,29.84,West,273,3.0,12.0,42,0.00,,,0.01,Wunderground v.1.15,2013-10-20 18:36:00,
2013-10-20 14:41:00,60.2,37.6,29.85,WSW,238,5.0,8.0,43,0.00,,,0.01,Wunderground v.1.15,2013-10-20 18:41:00,
2013-10-20 14:46:00,60.2,37.6,29.85,West,261,1.0,11.0,43,0.00,,,0.01,Wunderground v.1.15,2013-10-20 18:46:00,
2013-10-20 14:52:00,60.0,36.8,29.85,West,273,1.0,9.0,42,0.00,,,0.01,Wunderground v.1.15,2013-10-20 18:52:00,
2013-10-20 14:57:00,59.6,37.1,29.85,WSW,238,4.0,12.0,43,0.00,,,0.01,Wunderground v.1.15,2013-10-20 18:57:00,
2013-10-20 15:01:00,59.5,37.0,29.85,West,259,9.0,13.0,43,0.00,,,0.01,Wunderground v.1.15,2013-10-20 19:01:00,
2013-10-20 15:07:00,59.6,37.1,29.85,WNW,289,1.0,13.0,43,0.00,,,0.01,Wunderground v.1.15,2013-10-20 19:07:00,
2013-10-20 15:12:00,59.8,37.2,29.85,West,273,0.0,8.0,43,0.00,,,0.01,Wunderground v.1.15,2013-10-20 19:12:00,
2013-10-20 15:16:00,59.9,37.3,29.85,WNW,296,1.0,9.0,43,0.00,,,0.01,Wunderground v.1.15,2013-10-20 19:16:00,
2013-10-20 15:21:00,60.2,38.2,29.85,West,261,2.0,5.0,44,0.00,,,0.01,Wunderground v.1.15,2013-10-20 19:21:00,
2013-10-20 15:26:00,60.2,37.6,29.85,WNW,297,2.0,6.0,43,0.00,,,0.01,Wunderground v.1.15,2013-10-20 19:26:00,
2013-10-20 15:31:00,60.2,37.0,29.85,West,263,4.0,8.0,42,0.00,,,0.01,Wunderground v.1.15,2013-10-20 19:31:00,
2013-10-20 15:36:00,60.2,37.6,29.85,West,271,0.0,8.0,43,0.00,,,0.01,Wunderground v.1.15,2013-10-20 19:36:00,
2013-10-20 15:41:00,60.5,38.5,29.85,West,264,1.0,3.0,44,0.00,,,0.01,Wunderground v.1.15,2013-10-20 19:41:00,
2013-10-20 15:47:00,60.7,38.1,29.85,West,277,2.0,9.0,43,0.00,,,0.01,Wunderground v.1.15,2013-10-20 19:47:00,
2013-10-20 15:52:00,60.7,38.1,29.85,West,259,0.0,2.0,43,0.00,,,0.01,Wunderground v.1.15,2013-10-20 19:52:00,
2013-10-20 15:57:00,60.7,39.8,29.85,SSW,201,0.0,8.0,46,0.00,,,0.01,Wunderground v.1.15,2013-10-20 19:57:00,
2013-10-20 16:02:00,60.8,38.7,29.86,WSW,253,0.0,3.0,44,0.00,,,0.01,Wunderground v.1.15,2013-10-20 20:02:00,
2013-10-20 16:07:00,61.0,38.3,29.86,WNW,288,4.0,4.0,43,0.00,,,0.01,Wunderground v.1.15,2013-10-20 20:07:00,
2013-10-20 16:12:00,60.8,38.1,29.86,WSW,240,2.0,8.0,43,0.00,,,0.01,Wunderground v.1.15,2013-10-20 20:12:00,
2013-10-20 16:17:00,60.7,38.1,29.86,SW,236,0.0,9.0,43,0.00,,,0.01,Wunderground v.1.15,2013-10-20 20:17:00,
2013-10-20 16:22:00,60.9,38.2,29.86,WSW,237,0.0,8.0,43,0.00,,,0.01,Wunderground v.1.15,2013-10-20 20:22:00,
2013-10-20 16:27:00,61.0,38.9,29.86,WSW,242,4.0,8.0,44,0.00,,,0.01,Wunderground v.1.15,2013-10-20 20:27:00,
2013-10-20 16:32:00,60.9,38.8,29.86,West,277,1.0,6.0,44,0.00,,,0.01,Wunderground v.1.15,2013-10-20 20:32:00,
2013-10-20 16:37:00,60.9,40.0,29.87,West,277,0.0,9.0,46,0.00,,,0.01,Wunderground v.1.15,2013-10-20 20:37:00,
2013-10-20 16:42:00,60.7,38.6,29.87,West,267,5.0,9.0,44,0.00,,,0.01,Wunderground v.1.15,2013-10-20 20:42:00,
2013-10-20 16:47:00,60.5,40.2,29.87,SW,217,0.0,9.0,47,0.00,,,0.01,Wunderground v.1.15,2013-10-20 20:47:00,
2013-10-20 16:52:00,60.4,38.9,29.87,WSW,254,0.0,8.0,45,0.00,,,0.01,Wunderground v.1.15,2013-10-20 20:52:00,
2013-10-20 16:57:00,60.0,38.6,29.87,West,263,3.0,8.0,45,0.00,,,0.01,Wunderground v.1.15,2013-10-20 20:57:00,
2013-10-20 17:02:00,59.6,38.2,29.87,WSW,242,0.0,8.0,45,0.00,,,0.01,Wunderground v.1.15,2013-10-20 21:02:00,
2013-10-20 17:07:00,59.3,38.5,29.87,WSW,246,0.0,8.0,46,0.00,,,0.01,Wunderground v.1.15,2013-10-20 21:07:00,
2013-10-20 17:12:00,58.7,37.4,29.87,WNW,290,0.0,12.0,45,0.00,,,0.01,Wunderground v.1.15,2013-10-20 21:12:00,
2013-10-20 17:17:00,58.3,38.1,29.88,West,263,4.0,12.0,47,0.00,,,0.01,Wunderground v.1.15,2013-10-20 21:17:00,
2013-10-20 17:22:00,58.0,38.4,29.88,SW,223,4.0,4.0,48,0.00,,,0.01,Wunderground v.1.15,2013-10-20 21:22:00,
2013-10-20 17:27:00,57.9,37.8,29.88,West,275,0.0,7.0,47,0.00,,,0.01,Wunderground v.1.15,2013-10-20 21:27:00,
2013-10-20 17:32:00,57.9,37.8,29.88,WSW,248,0.0,6.0,47,0.00,,,0.01,Wunderground v.1.15,2013-10-20 21:32:00,
2013-10-20 17:37:00,58.0,38.4,29.88,WSW,248,0.0,6.0,48,0.00,,,0.01,Wunderground v.1.15,2013-10-20 21:37:00,
2013-10-20 17:42:00,58.0,37.9,29.89,WSW,248,0.0,1.0,47,0.00,,,0.01,Wunderground v.1.15,2013-10-20 21:42:00,
2013-10-20 17:47:00,57.8,38.8,29.89,WSW,249,0.0,1.0,49,0.00,,,0.01,Wunderground v.1.15,2013-10-20 21:47:00,
2013-10-20 17:52:00,57.3,37.8,29.89,SW,228,0.0,4.0,48,0.00,,,0.01,Wunderground v.1.15,2013-10-20 21:52:00,
2013-10-20 17:57:00,56.8,38.3,29.89,WSW,248,0.0,4.0,50,0.00,,,0.01,Wunderground v.1.15,2013-10-20 21:57:00,
2013-10-20 18:02:00,56.3,37.4,29.89,West,267,0.0,4.0,49,0.00,,,0.01,Wunderground v.1.15,2013-10-20 22:02:00,
2013-10-20 18:07:00,55.8,37.4,29.89,West,267,0.0,4.0,50,0.00,,,0.01,Wunderground v.1.15,2013-10-20 22:07:00,
2013-10-20 18:12:00,55.3,37.5,29.89,West,259,0.0,4.0,51,0.00,,,0.01,Wunderground v.1.15,2013-10-20 22:12:00,
2013-10-20 18:17:00,54.8,37.0,29.90,West,259,0.0,4.0,51,0.00,,,0.01,Wunderground v.1.15,2013-10-20 22:17:00,
2013-10-20 18:22:00,54.4,37.1,29.90,West,271,0.0,4.0,52,0.00,,,0.01,Wunderground v.1.15,2013-10-20 22:22:00,
2013-10-20 18:27:00,54.1,36.9,29.90,West,271,0.0,4.0,52,0.00,,,0.01,Wunderground v.1.15,2013-10-20 22:27:00,
2013-10-20 18:32:00,53.8,36.6,29.91,West,273,0.0,4.0,52,0.00,,,0.01,Wunderground v.1.15,2013-10-20 22:32:00,
2013-10-20 18:37:00,53.5,36.8,29.91,West,273,0.0,4.0,53,0.00,,,0.01,Wunderground v.1.15,2013-10-20 22:37:00,
2013-10-20 18:42:00,53.2,37.0,29.91,West,273,0.0,0.0,54,0.00,,,0.01,Wunderground v.1.15,2013-10-20 22:42:00,
2013-10-20 18:47:00,53.0,36.8,29.91,West,273,0.0,0.0,54,0.00,,,0.01,Wunderground v.1.15,2013-10-20 22:47:00,
2013-10-20 18:52:00,52.7,37.0,29.92,West,273,0.0,0.0,55,0.00,,,0.01,Wunderground v.1.15,2013-10-20 22:52:00,
2013-10-20 18:57:00,52.5,36.8,29.92,West,273,0.0,0.0,55,0.00,,,0.01,Wunderground v.1.15,2013-10-20 22:57:00,
2013-10-20 19:02:00,52.3,36.6,29.92,West,273,0.0,0.0,55,0.00,,,0.01,Wunderground v.1.15,2013-10-20 23:02:00,
2013-10-20 19:07:00,52.1,36.9,29.92,West,273,0.0,0.0,56,0.00,,,0.01,Wunderground v.1.15,2013-10-20 23:07:00,
2013-10-20 19:12:00,51.9,36.7,29.92,West,273,0.0,1.0,56,0.00,,,0.01,Wunderground v.1.15,2013-10-20 23:12:00,
2013-10-20 19:17:00,51.6,36.9,29.92,West,273,1.0,1.0,57,0.00,,,0.01,Wunderground v.1.15,2013-10-20 23:17:00,
2013-10-20 19:22:00,51.5,37.2,29.92,West,274,0.0,3.0,58,0.00,,,0.01,Wunderground v.1.15,2013-10-20 23:22:00,
2013-10-20 19:27:00,51.4,37.1,29.92,West,270,0.0,4.0,58,0.00,,,0.01,Wunderground v.1.15,2013-10-20 23:27:00,
2013-10-20 19:32:00,51.2,37.4,29.93,West,270,0.0,1.0,59,0.00,,,0.01,Wunderground v.1.15,2013-10-20 23:32:00,
2013-10-20 19:37:00,50.9,37.1,29.93,West,270,0.0,3.0,59,0.00,,,0.01,Wunderground v.1.15,2013-10-20 23:37:00,
2013-10-20 19:42:00,50.7,36.9,29.93,West,270,0.0,1.0,59,0.00,,,0.01,Wunderground v.1.15,2013-10-20 23:42:00,
2013-10-20 19:47:00,50.7,36.9,29.93,West,271,2.0,5.0,59,0.00,,,0.01,Wunderground v.1.15,2013-10-20 23:47:00,
2013-10-20 19:52:00,50.7,36.9,29.93,West,271,0.0,1.0,59,0.00,,,0.01,Wunderground v.1.15,2013-10-20 23:52:00,
2013-10-20 19:58:00,50.8,37.0,29.93,West,273,0.0,3.0,59,0.00,,,0.01,Wunderground v.1.15,2013-10-20 23:58:00,
2013-10-20 20:03:00,50.8,37.0,29.93,West,273,0.0,0.0,59,0.00,,,0.01,Wunderground v.1.15,2013-10-21 00:03:00,
2013-10-20 20:08:00,50.9,37.1,29.93,West,273,0.0,0.0,59,0.00,,,0.01,Wunderground v.1.15,2013-10-21 00:08:00,
2013-10-20 20:13:00,50.8,37.0,29.93,West,273,0.0,0.0,59,0.00,,,0.01,Wunderground v.1.15,2013-10-21 00:13:00,
2013-10-20 20:18:00,50.8,37.0,29.94,West,273,0.0,1.0,59,0.00,,,0.01,Wunderground v.1.15,2013-10-21 00:18:00,
2013-10-20 20:23:00,50.6,37.2,29.94,West,273,0.0,1.0,60,0.00,,,0.01,Wunderground v.1.15,2013-10-21 00:23:00,
2013-10-20 20:28:00,50.6,37.2,29.94,West,273,0.0,1.0,60,0.00,,,0.01,Wunderground v.1.15,2013-10-21 00:28:00,
2013-10-20 20:33:00,50.5,37.1,29.94,West,273,0.0,1.0,60,0.00,,,0.01,Wunderground v.1.15,2013-10-21 00:33:00,
2013-10-20 20:38:00,50.5,37.1,29.94,West,273,0.0,1.0,60,0.00,,,0.01,Wunderground v.1.15,2013-10-21 00:38:00,
2013-10-20 20:43:00,50.5,37.1,29.94,West,273,0.0,1.0,60,0.00,,,0.01,Wunderground v.1.15,2013-10-21 00:43:00,
2013-10-20 20:48:00,50.3,36.9,29.94,West,273,0.0,1.0,60,0.00,,,0.01,Wunderground v.1.15,2013-10-21 00:48:00,
2013-10-20 20:53:00,50.1,37.2,29.95,West,273,0.0,0.0,61,0.00,,,0.01,Wunderground v.1.15,2013-10-21 00:53:00,
2013-10-20 20:58:00,50.0,37.1,29.95,West,273,0.0,0.0,61,0.00,,,0.01,Wunderground v.1.15,2013-10-21 00:58:00,
2013-10-20 21:03:00,49.9,37.0,29.95,West,273,0.0,0.0,61,0.00,,,0.01,Wunderground v.1.15,2013-10-21 01:03:00,
2013-10-20 21:08:00,49.7,37.2,29.95,West,273,0.0,0.0,62,0.00,,,0.01,Wunderground v.1.15,2013-10-21 01:08:00,
2013-10-20 21:13:00,49.6,36.7,29.95,West,273,0.0,0.0,61,0.00,,,0.01,Wunderground v.1.15,2013-10-21 01:13:00,
2013-10-20 21:21:00,49.5,37.0,29.96,West,273,0.0,0.0,62,0.00,,,0.01,Wunderground v.1.15,2013-10-21 01:21:00,
2013-10-20 21:31:00,49.4,36.9,29.96,West,273,0.0,0.0,62,0.00,,,0.01,Wunderground v.1.15,2013-10-21 01:31:00,
2013-10-20 22:09:00,48.4,36.8,29.97,West,273,0.0,0.0,64,0.00,,,0.01,Wunderground v.1.15,2013-10-21 02:09:00,
2013-10-20 22:14:00,48.2,36.6,29.97,West,273,0.0,0.0,64,0.00,,,0.01,Wunderground v.1.15,2013-10-21 02:14:00,
2013-10-20 22:19:00,48.2,37.0,29.98,West,273,0.0,0.0,65,0.00,,,0.01,Wunderground v.1.15,2013-10-21 02:19:00,
2013-10-20 22:24:00,48.2,37.0,29.97,West,273,0.0,0.0,65,0.00,,,0.01,Wunderground v.1.15,2013-10-21 02:24:00,
2013-10-20 22:29:00,47.9,37.1,29.97,West,273,0.0,0.0,66,0.00,,,0.01,Wunderground v.1.15,2013-10-21 02:29:00,
2013-10-20 22:34:00,47.3,36.9,29.97,West,273,0.0,0.0,67,0.00,,,0.01,Wunderground v.1.15,2013-10-21 02:34:00,
2013-10-20 22:39:00,46.9,36.9,29.97,West,273,0.0,0.0,68,0.00,,,0.01,Wunderground v.1.15,2013-10-21 02:39:00,
2013-10-20 22:44:00,47.2,37.2,29.97,West,273,0.0,0.0,68,0.00,,,0.01,Wunderground v.1.15,2013-10-21 02:44:00,
2013-10-20 22:49:00,47.3,36.9,29.98,West,273,0.0,0.0,67,0.00,,,0.01,Wunderground v.1.15,2013-10-21 02:49:00,
2013-10-20 22:55:00,47.2,37.2,29.98,West,273,0.0,0.0,68,0.00,,,0.01,Wunderground v.1.15,2013-10-21 02:55:00,
2013-10-20 23:00:00,46.9,37.3,29.98,West,273,0.0,0.0,69,0.00,,,0.01,Wunderground v.1.15,2013-10-21 03:00:00,
2013-10-20 23:05:00,46.4,37.1,29.98,West,273,0.0,0.0,70,0.00,,,0.01,Wunderground v.1.15,2013-10-21 03:05:00,
2013-10-20 23:10:00,46.2,37.3,29.98,West,273,0.0,0.0,71,0.00,,,0.01,Wunderground v.1.15,2013-10-21 03:10:00,
2013-10-20 23:15:00,46.1,37.2,29.98,West,273,0.0,0.0,71,0.00,,,0.01,Wunderground v.1.15,2013-10-21 03:15:00,
2013-10-20 23:20:00,46.2,37.7,29.98,West,273,0.0,0.0,72,0.00,,,0.01,Wunderground v.1.15,2013-10-21 03:20:00,
2013-10-20 23:25:00,46.3,37.8,29.98,West,273,0.0,0.0,72,0.00,,,0.01,Wunderground v.1.15,2013-10-21 03:25:00,
2013-10-20 23:30:00,46.4,37.5,29.98,West,272,0.0,0.0,71,0.00,,,0.01,Wunderground v.1.15,2013-10-21 03:30:00,
2013-10-20 23:35:00,46.3,37.4,29.98,West,272,0.0,0.0,71,0.00,,,0.01,Wunderground v.1.15,2013-10-21 03:35:00,
2013-10-20 23:40:00,45.6,37.4,29.98,West,272,2.0,2.0,73,0.00,,,0.01,Wunderground v.1.15,2013-10-21 03:40:00,
2013-10-20 23:45:00,44.5,37.4,29.98,ENE,74,2.0,3.0,76,0.00,,,0.01,Wunderground v.1.15,2013-10-21 03:45:00,
2013-10-20 23:50:00,44.1,37.3,29.98,ENE,73,2.0,2.0,77,0.00,,,0.01,Wunderground v.1.15,2013-10-21 03:50:00,
2013-10-20 23:55:00,44.2,37.4,29.99,ENE,73,0.0,3.0,77,0.00,,,0.01,Wunderground v.1.15,2013-10-21 03:55:00,